SCP
0 0 0 0 0 0 0 0 0 0 0 0 0 0 0 0 0 0 0 0 0 0 0 0 0 0 0 0 0 0 0 0 0 0 0 0 0 0 0 0 0 0 0
0 0 0 0 0 0 0 0 0 0 0 0 0 0 0 0 0 0 0 0 0 0 0 0 0 0 0 0 0 0 0 0 0 0 0 0 0 0 0 0 0 0 0
0 0 0 0 0 0 0 0 0 0 0 0 0 0 0 0 0 0 0 0 0 0 0 0 0 0 0 0 0 0 0 0 0 0 0 0 0 0 0 0 0 0 0
0 0 0 0 0 0 0 0 0 0 0 0 0 0 0 0 0 0 0 0 0 0 0 0 0 0 0 0 0 0 0 0 0 0 0 0 0 0 0 0 0 0 0
0 0 0 0 0 0 0 0 0 0 0 0 0 0 0 0 0 0 0 0 0 0 0 0 0 0 0 0 0 0 0 0 0 0 0 0 0 0 0 0 0 0 0
0 0 0 0 0 0 0 0 0 0 0 0 0 0 0 0 0 0 0 0 0 0 0 0 0 0 0 0 0 0 0 0 0 0 0 0 0 0 0 0 0 0 0
0 0 0 0 0 0 0 0 0 0 0 0 0 0 0 0 0 0 0 0 0 0 0 0 0 0 0 0 0 0 0 0 0 0 0 0 0 0 0 0 0 0 0
0 0 0 0 0 0 0 0 0 0 0 0 0 0 0 0 0 0 0 0 0 0 0 0 0 0 0 0 0 0 0 0 0 0 0 0 0 0 0 0 0 0 0
0 0 0 0 0 0 0 0 0 0 0 0 0 0 0 0 0 0 0 0 0 0 0 0 0 0 0 0 0 0 0 0 0 0 0 0 0 0 0 0 0 0 0
0 0 0 0 0 0 0 0 0 0 0 0 0 0 0 0 0 0 0 0 0 0 0 0 0 0 0 0 0 0 0 0 0 0 0 0 0 0 0 0 0 0 0
0 0 0 0 0 0 0 0 0 0 0 0 0 0 0 0 0 0 0 0 0 0 0 0 0 0 0 0 0 0 0 0 0 0 0 0 0 0 0 0 0 0 0
0 0 0 0 0 0 0 0 0 0 0 0 0 0 0 0 0 0 0 0 0 0 0 0 0 0 0 0 0 0 0 0 0 0 0 0 0 0 0 0 0 0 0
0 0 0 0 0 0 0 0 0 0 0 0 0 1 1 0 1 1 1 1 1 0 0 0 0 0 0 0 0 0 0 0 0 0 0 0 0 0 0 0 0 0 0
0 0 0 0 0 1 1 1 1 1 1 1 1 1 1 1 1 1 1 1 1 1 0 0 0 0 0 0 0 0 0 0 0 0 0 0 0 0 0 0 0 0 0
0 0 0 1 1 1 1 1 1 1 1 1 1 1 1 1 1 1 1 1 1 1 1 0 0 0 0 0 0 0 0 0 0 0 0 0 0 0 0 0 0 0 0
1 1 1 1 1 1 1 1 1 1 1 1 1 1 1 1 1 1 1 1 1 1 1 1 0 0 0 0 0 0 0 0 0 0 0 0 0 0 0 0 0 0 0
1 1 1 1 1 1 1 1 1 1 1 1 1 1 1 1 1 1 1 1 1 1 1 1 1 0 0 0 0 0 0 0 0 0 0 0 0 0 0 0 0 0 0
1 1 1 1 1 1 1 1 1 1 1 1 1 1 1 1 1 1 1 1 1 1 1 1 1 1 0 0 0 0 0 0 0 0 0 0 0 0 0 0 0 0 0
1 1 1 1 1 1 1 1 1 1 1 1 1 1 1 1 1 1 1 1 1 1 1 1 1 1 1 0 0 0 0 0 0 0 0 0 0 0 0 0 0 0 0
1 2 2 2 2 1 1 1 1 1 1 1 1 1 1 1 1 1 1 1 1 1 1 1 1 1 1 1 0 0 0 0 0 0 0 0 0 0 0 0 0 0 0
2 2 2 2 2 2 1 1 1 1 1 1 1 1 1 1 1 1 1 1 1 1 1 1 1 1 1 0 0 0 0 0 0 0 0 0 0 0 0 0 0 0 0
2 2 2 2 2 2 1 1 1 1 1 1 1 1 1 1 1 1 1 1 1 1 1 1 1 1 0 0 0 0 0 0 0 0 0 0 0 0 0 0 0 0 0
2 2 2 2 2 2 2 1 1 1 1 1 1 1 1 1 1 1 1 1 1 1 1 1 1 0 0 0 0 0 0 0 0 0 0 0 0 0 0 0 0 0 0
1 2 2 2 2 2 2 1 1 1 1 1 1 1 1 1 1 1 1 0 0 0 0 0 0 0 0 0 0 0 0 0 0 0 0 0 0 0 0 0 0 0 1
2 2 2 2 2 2 2 2 2 2 2 2 2 1 1 1 1 1 0 0 0 0 0 0 0 0 0 0 0 0 0 0 0 0 0 0 0 0 0 0 0 1 1
2 2 2 2 2 2 2 2 2 2 2 2 2 1 1 1 1 1 0 0 0 0 0 0 0 0 0 0 0 0 0 0 0 0 0 0 0 0 0 0 1 1 1
Wind_Speed
13 14 13 11 10 9 9 9 8 8 8 8 8 8 9 9 9 9 9 9 8 8 8 7 7 7 7 7 7 7 6 6 7 8 9 9 9 9 8 9 9 8 12
16 15 14 11 10 10 9 9 8 8 8 8 8 8 8 8 8 8 8 8 8 8 7 7 6 6 6 6 6 6 6 5 6 7 8 8 9 9 9 9 9 7 11
16 14 13 11 10 10 9 8 8 7 7 8 8 7 8 8 8 7 7 7 7 7 7 7 7 7 6 6 5 5 5 5 6 6 7 5 7 9 9 10 10 11 11
15 13 12 11 10 9 9 8 8 7 7 7 7 7 7 7 7 7 7 7 7 7 7 7 7 7 7 6 5 4 3 3 4 5 3 5 6 9 10 10 11 11 11
14 14 13 12 11 9 8 8 8 7 7 7 7 6 6 7 7 6 6 6 6 6 6 6 6 6 6 5 4 3 2 2 3 4 2 4 5 10 11 11 11 10 10
14 14 14 12 11 10 8 8 7 7 7 6 6 5 6 6 6 5 6 6 6 5 6 5 5 5 5 4 3 2 1 1 3 3 2 4 6 10 10 10 10 10 10
14 14 14 13 11 10 9 8 7 6 6 5 5 5 4 4 4 4 5 4 5 4 4 4 4 4 4 3 3 1 1 2 3 2 2 5 7 11 10 10 10 9 9
14 14 13 13 12 10 9 8 7 6 5 5 4 3 3 3 3 4 4 3 3 3 3 3 3 2 2 2 1 1 2 2 0 1 3 5 9 11 11 10 10 9 8
14 13 10 10 10 10 9 8 7 6 5 4 4 3 2 3 4 4 4 3 2 2 2 2 2 1 0 0 1 2 3 2 2 1 3 5 10 11 11 10 9 9 8
11 12 11 10 8 8 8 8 7 6 5 4 3 2 2 3 5 5 5 4 3 2 2 2 2 2 2 2 3 3 3 3 1 2 3 6 10 11 11 10 9 9 8
8 8 9 10 8 7 8 8 7 6 4 4 3 3 3 3 3 4 3 5 4 4 4 4 4 4 3 4 5 5 4 1 1 2 4 9 11 11 11 10 9 9 8
8 7 7 9 7 5 6 6 5 5 4 4 2 2 2 1 1 2 4 6 5 5 4 5 5 5 5 3 4 5 2 2 1 3 6 12 11 11 10 9 8 8 8
7 6 6 7 6 5 4 4 2 2 3 3 2 2 1 1 0 1 2 3 4 4 3 4 5 4 3 2 1 2 2 1 1 3 7 12 11 10 9 8 7 7 7
7 7 6 7 5 4 3 2 2 2 2 2 2 1 1 0 0 1 0 1 2 1 2 2 2 2 1 1 1 1 0 1 2 3 6 11 10 10 9 9 7 7 8
6 6 7 6 5 4 3 1 1 1 1 2 2 1 0 0 0 1 1 1 1 0 0 0 0 1 1 0 0 1 0 1 2 4 5 9 10 9 9 9 8 8 8
7 6 6 7 6 4 3 0 0 1 1 1 2 2 1 1 1 1 0 0 1 1 1 1 1 0 1 1 1 1 0 1 1 3 4 6 8 9 9 9 9 8 8
7 6 6 7 7 5 3 2 1 1 1 1 1 2 1 0 1 1 1 0 1 1 1 0 1 1 0 1 0 0 0 1 1 2 3 3 4 7 8 8 9 9 9
6 6 5 5 6 5 3 2 1 1 1 1 1 2 1 0 1 1 1 1 1 0 1 0 0 1 0 0 0 1 1 1 2 2 2 3 3 4 6 9 9 9 9
5 5 5 4 5 4 3 2 2 1 1 1 1 2 1 0 0 0 1 1 2 1 0 1 1 1 1 0 1 1 1 1 2 2 2 3 3 3 3 7 9 9 8
5 5 5 4 4 4 3 2 1 1 1 1 1 2 2 0 0 1 0 0 2 1 1 1 1 1 1 1 2 1 1 1 1 1 2 2 2 3 4 4 5 6 8
5 5 5 4 4 3 2 3 2 2 1 1 1 2 2 1 0 0 1 0 1 0 0 1 1 1 1 1 1 1 2 1 1 1 1 1 2 2 2 4 4 4 4
5 5 5 4 4 3 2 1 2 2 1 1 1 2 1 1 0 0 0 0 0 0 0 1 1 1 1 0 0 1 1 1 1 1 2 1 1 1 2 3 4 4 4
7 5 5 4 4 2 2 1 1 1 1 1 2 2 1 1 1 1 0 1 0 0 0 1 1 1 1 1 0 0 1 1 1 1 1 1 1 1 2 2 3 4 4
9 7 6 5 4 3 2 1 1 2 1 1 1 1 1 1 0 1 1 0 1 1 0 1 0 1 1 1 1 1 1 1 0 1 1 1 1 1 1 1 1 2 3
9 8 7 6 4 3 2 2 1 1 1 1 1 1 1 1 1 0 0 0 0 1 0 1 1 1 1 1 1 1 2 1 1 2 2 1 1 1 1 1 1 1 2
7 8 8 6 4 3 2 2 1 1 2 1 1 1 1 1 1 0 1 1 0 1 1 1 0 1 1 2 2 2 1 1 1 1 2 2 1 1 1 1 1 1 2
Wind_Direction
104 107 103 96 91 86 84 81 78 77 76 76 73 71 70 69 67 65 68 71 76 77 79 83 84 81 78 80 86 92 93 104 113 117 119 120 120 119 120 126 125 123 127
108 110 104 97 94 90 86 84 81 81 80 80 76 75 75 74 72 69 68 72 75 77 79 82 84 84 83 86 89 97 106 124 139 140 134 128 123 122 118 117 116 121 129
109 113 107 99 96 94 89 85 83 82 83 83 80 79 79 79 77 76 72 72 76 78 79 81 81 83 86 86 89 102 122 147 160 165 159 135 128 129 124 121 124 123 127
112 115 109 107 102 99 93 87 83 83 84 87 84 82 82 84 82 80 77 74 77 79 80 81 81 81 82 82 87 104 134 167 189 201 192 138 133 136 135 132 130 128 128
114 115 115 115 110 105 99 93 88 85 85 87 87 85 87 88 85 81 79 76 78 79 81 80 80 81 82 85 89 101 131 172 223 229 192 133 129 137 141 139 136 134 134
120 118 122 121 118 113 106 101 95 88 87 86 87 89 89 91 90 86 81 77 80 81 81 79 76 77 76 77 79 96 147 225 259 235 190 133 128 133 138 138 137 134 136
122 120 127 127 124 120 116 110 102 97 92 87 89 92 94 97 99 97 90 84 81 81 81 81 83 80 76 72 67 57 265 256 242 221 128 122 128 133 138 140 136 137 142
115 117 128 133 132 130 127 121 114 108 106 99 95 99 110 117 120 115 109 100 93 89 85 85 85 78 67 53 39 351 329 304 275 147 107 111 131 138 140 141 140 140 143
115 121 130 137 140 141 139 134 128 123 121 119 115 116 135 156 151 148 142 133 129 118 112 106 100 105 101 7 298 298 308 313 309 131 121 119 134 138 139 139 141 144 147
119 128 136 138 142 151 148 144 140 140 141 138 145 161 176 169 165 170 163 164 170 173 170 172 196 197 218 236 246 258 279 299 286 106 107 123 130 134 138 140 144 146 150
118 127 134 137 145 153 147 143 153 163 164 160 177 195 201 207 185 177 161 167 188 203 205 206 220 212 223 226 232 241 255 250 157 110 107 126 132 132 137 142 146 149 153
129 132 133 133 139 147 136 140 166 167 165 184 168 181 212 231 193 153 156 181 196 210 219 217 219 217 228 230 219 223 238 222 161 118 121 133 135 137 139 143 147 154 158
135 129 129 125 126 131 124 146 158 158 160 184 161 165 184 207 172 138 159 176 200 206 219 213 213 224 222 221 207 196 209 172 103 112 128 136 138 140 145 146 153 162 165
138 135 130 122 120 113 108 130 147 146 157 154 136 161 158 167 24 18 90 198 206 208 209 203 211 206 229 208 206 208 199 118 108 103 132 141 145 150 152 152 159 167 174
136 141 129 119 114 105 98 99 125 117 125 122 127 142 89 102 51 35 23 351 305 264 232 297 315 144 163 238 259 164 135 47 100 122 134 147 151 158 162 164 168 173 179
145 140 131 132 121 119 122 131 82 123 108 111 119 112 87 9 54 39 21 345 318 337 19 336 328 11 86 87 17 356 89 96 89 120 137 154 159 164 171 177 180 182 183
140 137 140 145 134 137 146 180 174 170 144 130 117 113 113 35 49 351 310 277 315 337 341 329 358 344 75 85 63 320 22 97 129 131 137 148 163 173 178 183 187 188 189
137 137 150 156 141 144 150 192 213 182 138 124 108 106 100 12 67 343 319 318 310 314 277 226 294 317 22 40 300 249 177 160 178 166 160 163 166 175 184 188 188 190 192
130 141 150 141 140 152 163 189 213 148 114 109 97 102 106 16 59 261 308 326 286 272 272 296 69 350 313 345 272 237 225 204 191 184 171 174 163 163 169 180 186 188 193
128 129 135 138 137 152 162 183 215 167 148 128 115 97 104 101 46 299 255 308 299 306 356 3 15 314 295 265 287 315 262 231 184 173 187 170 164 171 170 168 176 187 193
131 135 134 141 137 155 174 190 196 192 182 162 140 113 118 115 109 241 354 3 295 305 330 334 8 291 276 240 305 312 284 229 183 179 186 179 179 177 163 165 171 174 182
142 147 137 142 144 168 172 189 186 180 178 161 115 115 134 133 101 257 2 342 321 330 271 334 353 309 284 266 299 311 304 308 321 212 177 178 193 167 176 178 166 164 174
152 157 155 145 140 154 151 184 189 145 174 141 139 136 127 91 90 27 70 1 296 229 106 302 294 281 297 308 300 294 300 306 322 296 212 192 183 186 185 179 163 165 174
159 160 140 129 132 147 164 176 182 166 154 117 111 119 131 137 125 29 50 61 20 334 119 276 85 298 287 300 298 283 265 252 271 311 291 273 224 225 200 207 173 155 165
157 151 139 134 141 147 160 153 160 131 102 95 93 137 162 149 128 118 117 90 3 312 356 320 0 316 284 278 286 288 276 272 222 218 259 267 256 236 183 210 188 162 162
145 138 132 137 145 144 147 143 155 113 92 79 94 120 158 133 122 66 89 79 13 302 304 282 284 270 277 278 279 282 285 278 267 245 248 248 239 233 194 198 188 191 189